User: anonymous   Login
Location: Mentone
(34.5413°N, 85.5351°W)
Time: 15:13:35
(UTC-06:00)
Language:

ADEOS Rocket - Orbit

View from above orbital plane
View from above orbital plane
View from above satellite
View from above satellite

Ground track
Ground track

The orbit data is extracted from the following two-line orbital elements,

1 24279U 96046C   16041.94099578 -.00000012 +00000-0 +26677-4 0  9998
2 24279 098.6939 042.3775 0301066 104.4029 316.0225 13.47042201957705
Epoch (UTC): 10 February 2016 22:35:02
Eccentricity: 0.0301066
inclination: 98.6939°
perigee height: 858 km
apogee height: 1308 km
right ascension of ascending node: 42.3775°
argument of perigee: 104.4029°
revolutions per day: 13.47042201
mean anomaly at epoch: 316.0225°
orbit number at epoch: 95770

The dashed part of the orbit path shows where the satellite is in the earth's shadow,  

DLR